Location: De Greiden
(52.9496°N, 5.9137°E)
Time: 23:38:58
(UTC+00:00)

USA 234 - Pass Details

Date: 24 January 2021
Orbit: 1100 x 1107 km, 123.0° (Epoch: 27 February)

Event Time Altitude Azimuth Distance (km) Brightness Sun altitude
Exits shadow 17:29:27 16° 77° (ENE) 2,553 4.5 -12.3°
Maximum altitude 17:34:47 63° 360° (N) 1,220 3.4 -13.1°
Drops below altitude 10° 17:41:14 10° 281° (W) 2,968 6.6 -14.0°
Sets 17:43:44 0° 279° (W) 3,927 7.5 -14.4°
